This demonstration page uses our WeatherBlox Daily Observations layout. Learn more.

Left ArrowRight Arrow

44.8408, -93.29828

Hourly Observations for March 23, 2020

Temp ( °F °C ) Dew Point ( °F °C ) Humidity (%) Winds ( mph kmh ) Pressure ( in mb ) Visibility ( mi km ) Precip ( " mm )
12:08 am 00:08 Cloudy with Light Snow 34 1.1 30 -1.1 85 85 S 7 11 30.16 1021 2 3 0.00 0.00
12:13 am 00:13 Cloudy with Light Snow 33 0.6 31 -0.6 92 92 S 7 11 30.16 1021 1 2 0.01 0.25
12:27 am 00:27 Mostly Cloudy with Light Snow 33 0.6 31 -0.6 92 92 S 6 9 30.16 1021 1 1 0.02 0.51
12:53 am 00:53 Cloudy with Light Snow 32 0 31 -0.6 96 96 S 6 9 30.14 1021 1 1 0.04 1.02
1:14 am 01:14 Cloudy with Light Snow 33 0.6 31 -0.6 92 92 S 6 9 30.16 1021 1 1 0.02 0.51
1:24 am 01:24 Cloudy with Light Snow 33 0.6 31 -0.6 92 92 S 5 7 30.16 1021 1 2 0.02 0.51
1:51 am 01:51 Cloudy with Light Snow 32 0 30 -1 93 93 S 3 6 30.16 1021 1 2 0.03 0.76
1:52 am 01:52 Cloudy with Light Snow 32 0 31 -0.6 96 96 S 3 6 30.14 1021 1 2 0.03 0.76
2:14 am 02:14 Cloudy with Light Snow 32 0 31 -0.6 96 96 S 5 7 30.16 1021 1 1 0.02 0.51
2:26 am 02:26 Cloudy with Light Snow 32 0 31 -0.6 96 96 S 5 7 30.15 1021 1 2 0.03 0.76
2:53 am 02:53 Cloudy with Light Snow 33 0.6 31 -0.6 92 92 S 5 7 30.12 1020 2 2 0.04 1.02
3:16 am 03:16 Cloudy with Light Snow 32 0 31 -0.6 96 96 S 5 7 30.15 1021 1 2 0.00 0.00
3:49 am 03:49 Cloudy with Light Snow 32 0 30 -1 93 93 S 5 7 30.14 1021 1 1 0.02 0.51
3:53 am 03:53 Cloudy with Light Snow 32 0 31 -0.6 96 96 S 5 7 30.11 1020 1 1 0.02 0.51
4:06 am 04:06 Cloudy with Light Snow 32 0 31 -0.6 96 96 S 5 7 30.13 1020 1 2 0.01 0.25
4:46 am 04:46 Cloudy with Light Snow 33 0.6 31 -0.6 92 92 SSW 3 6 30.12 1020 2 2 0.02 0.51
4:53 am 04:53 Cloudy with Light Snow 33 0.6 31 -0.6 92 92 SSW 3 6 30.10 1019 2 3 0.02 0.51
5:09 am 05:09 Cloudy with Light Snow 33 0.6 31 -0.6 92 92 SSW 6 9 30.12 1020 3 4 0.00 0.00
5:20 am 05:20 Cloudy with Light Snow 33 0.6 31 -0.6 92 92 SSW 5 7 30.12 1020 3 5 0.00 0.00
5:53 am 05:53 Cloudy with Light Snow 33 0.6 31 -0.6 92 92 SSW 5 7 30.11 1020 3 4 0.00 0.00
6:10 am 06:10 Cloudy with Mist and Fog 33 0.6 32 0 96 96 SSW 3 6 30.12 1020 4 6 0.00 0.00
6:53 am 06:53 Cloudy with Mist and Fog 33 0.6 32 0 96 96 VRB 3 6 30.12 1020 6 10 0.01 0.25
7:53 am 07:53 Cloudy with Mist and Fog 34 1.1 32 0 92 92 SW 6 9 30.14 1021 2 3 0.00 0.00
8:00 am 08:00 Cloudy with Drizzle 33 0.6 32 0 96 96 WSW 3 6 30.15 1021 2 3 0.00 0.00
8:37 am 08:37 Cloudy with Drizzle 34 1.1 33 0.6 97 97 Calm 30.16 1021 1 2 0.00 0.00
8:53 am 08:53 Cloudy with Drizzle 34 1.1 33 0.6 97 97 W 5 7 30.15 1021 2 2 0.00 0.00
9:07 am 09:07 Cloudy with Mist and Fog 34 1.1 33 0.6 97 97 VRB 3 6 30.17 1022 5 8 0.00 0.00
9:21 am 09:21 Cloudy with Mist and Fog 35 1.7 33 0.6 93 93 W 5 7 30.17 1022 6 10 0.00 0.00
9:53 am 09:53 Cloudy with Drizzle 35 1.7 33 0.6 93 93 W 6 9 30.16 1021 8 13 0.00 0.00
10:12 am 10:12 Cloudy 36 2.2 33 0.6 89 89 Calm 30.18 1022 8 13 0.00 0.00
10:53 am 10:53 Cloudy 37 2.8 32 0 82 82 WSW 3 6 30.16 1022 10 16 0.00 0.00
11:01 am 11:01 Cloudy 36 2.2 32 0 86 86 SW 3 6 30.18 1022 10 16 0.00 0.00
11:19 am 11:19 Cloudy 37 2.8 31 -0.6 79 79 Calm 30.17 1022 10 16 0.00 0.00
11:53 am 11:53 Cloudy 38 3.3 31 -0.6 76 76 Calm 30.16 1022 10 16 0.00 0.00
12:39 pm 12:39 Cloudy 38 3.3 32 0 79 79 SW 5 7 30.18 1022 10 16 0.00 0.00
12:53 pm 12:53 Cloudy 39 3.9 32 0 76 76 Calm 30.16 1021 10 16 0.00 0.00
1:53 pm 13:53 Cloudy 39 3.9 31 -0.6 73 73 Calm 30.15 1021 10 16 0.00 0.00
2:53 pm 14:53 Cloudy 40 4.4 31 -0.6 70 70 VRB 3 6 30.14 1021 10 16 0.00 0.00
3:53 pm 15:53 Partly Cloudy 42 5.6 30 -1.1 62 62 Calm 30.12 1020 10 16 0.00 0.00
4:53 pm 16:53 Mostly Sunny 43 6.1 30 -1.1 60 60 SSE 5 7 30.11 1020 10 16 0.00 0.00
5:53 pm 17:53 Mostly Sunny 43 6.1 30 -1.1 60 60 SE 5 7 30.10 1019 10 16 0.00 0.00
6:53 pm 18:53 Mostly Sunny 42 5.6 31 -0.6 65 65 SSE 5 7 30.10 1019 10 16 0.00 0.00
7:53 pm 19:53 Partly Cloudy 40 4.4 31 -0.6 70 70 ESE 10 17 30.11 1020 10 16 0.00 0.00
8:53 pm 20:53 Mostly Cloudy 38 3.3 33 0.6 83 83 SE 7 11 30.11 1020 10 16 0.00 0.00
9:53 pm 21:53 Partly Cloudy 37 2.8 32 0 82 82 SE 5 7 30.12 1020 10 16 0.00 0.00
10:43 pm 22:43 Mostly Cloudy 35 1.7 31 -0.6 85 85 SE 5 7 30.14 1021 9 14 0.00 0.00
10:53 pm 22:53 Mostly Cloudy 36 2.2 32 0 86 86 SE 5 7 30.12 1020 10 16 0.00 0.00
11:53 pm 23:53 Mostly Cloudy 36 2.2 32 0 86 86 SE 6 9 30.12 1020 8 13 0.00 0.00

Powered by AerisWeather